Daio — JG5587 — position and weather

sailwx.info

Track history (hours):
 
Tides and Currents Weather Stations Pressure Air Temp Water Temp Dewpoint Dewpoint Depression Visibility Wind Speed Wind Dir Waves Ship Positions

Daio

Last reported at 2016-Jun-30 02:28 UTC. Time now 2016-Sep-30 18:39 UTC.
Position N 35°29' E 139°39'.
Warning: this ship's position is months out of date.

Length 36 m; draft 3.4 m.

Type: Tug. MMSI: 431003092.

Date/timePositionNaut miles runAvg speedWind from/ knotsBaromVisibWave heightAir tempDewpointWater temp
2016-Jun-30 02:28N 35°29' E 139°39'1 0.0
2016-Jun-29 06:34N 35°28' E 139°40'1 1.2
2016-Jun-29 05:33N 35°27' E 139°39'3 2.5
2016-Jun-29 04:33N 35°28' E 139°41'1312.8
2016-Jun-29 03:33N 35°32' E 139°56'9 9.2
2016-Jun-29 02:33N 35°36' E 140°07'0 0.0
2016-Jun-29 01:33N 35°36' E 140°07'0 0.0
2016-Jun-29 00:33N 35°36' E 140°07'0 0.1
2016-Jun-28 23:34N 35°36' E 140°07'0 0.1
2016-Jun-28 22:33N 35°36' E 140°07'0 0.0
2016-Jun-28 21:33N 35°36' E 140°07'0 0.0
2016-Jun-28 20:34N 35°36' E 140°07'0 0.0
2016-Jun-28 19:34N 35°36' E 140°07'0 0.0
2016-Jun-28 18:33N 35°36' E 140°07'0 0.0
2016-Jun-28 17:33N 35°36' E 140°07'0 0.0
2016-Jun-28 16:34N 35°36' E 140°07'0 0.0
2016-Jun-28 15:34N 35°36' E 140°07'0 0.0
2016-Jun-28 14:34N 35°36' E 140°07'0 0.0
2016-Jun-28 13:34N 35°36' E 140°07'0 0.0
2016-Jun-28 12:33N 35°36' E 140°07'0 0.0
2016-Jun-28 11:33N 35°36' E 140°07'0 0.0
2016-Jun-28 10:33N 35°36' E 140°07'0 0.0
2016-Jun-28 09:34N 35°36' E 140°07'0 0.0
2016-Jun-28 08:33N 35°36' E 140°07'0 0.0
2016-Jun-28 07:33N 35°36' E 140°07'0 0.0
2016-Jun-28 06:34N 35°36' E 140°07'1 0.7
2016-Jun-28 04:34N 35°36' E 140°05'1 1.3
2016-Jun-28 03:34N 35°36' E 140°07'0 0.4
2016-Jun-28 02:34N 35°35' E 140°07'1010.1
2016-Jun-28 01:33N 35°31' E 139°56'0 0.5
2016-Jun-28 00:33N 35°31' E 139°56'1010.0
2016-Jun-27 23:33N 35°36' E 140°07'0 0.1
2016-Jun-27 22:33N 35°36' E 140°07'0 0.0
2016-Jun-27 21:33N 35°36' E 140°07'0 0.0
2016-Jun-27 20:33N 35°36' E 140°07'0 0.0
2016-Jun-27 19:33N 35°36' E 140°07'0 0.0
2016-Jun-27 18:33N 35°36' E 140°07'0 0.0
2016-Jun-27 17:33N 35°36' E 140°07'0 0.0
2016-Jun-27 16:33N 35°36' E 140°07'0 0.0
2016-Jun-27 15:33N 35°36' E 140°07'0 0.0
2016-Jun-27 14:33N 35°36' E 140°07'0 0.0
2016-Jun-27 13:33N 35°36' E 140°07'0 0.0
2016-Jun-27 12:33N 35°36' E 140°07'0 0.0
2016-Jun-27 11:33N 35°36' E 140°07'0 0.0
2016-Jun-27 10:33N 35°36' E 140°07'2 2.5
2016-Jun-27 09:33N 35°35' E 140°04'2 2.5
2016-Jun-27 08:33N 35°36' E 140°07'0 0.0
2016-Jun-27 07:33N 35°36' E 140°07'0 0.0
2016-Jun-27 06:33N 35°36' E 140°07'0 0.0
2016-Jun-27 05:33N 35°36' E 140°07'8 7.5
2016-Jun-27 04:34N 35°34' E 139°58'6 5.8
2016-Jun-27 03:33N 35°36' E 140°05'2 1.8
2016-Jun-27 02:33N 35°36' E 140°07'0 0.0
2016-Jun-27 01:33N 35°36' E 140°07'0 0.0
2016-Jun-27 00:33N 35°36' E 140°07'0 0.0
2016-Jun-26 23:33N 35°36' E 140°07'1 0.7
2016-Jun-26 22:33N 35°35' E 140°06'2 2.0
2016-Jun-26 21:33N 35°35' E 140°04'0 0.0
2016-Jun-26 20:33N 35°35' E 140°04'3 2.5
2016-Jun-26 19:34N 35°36' E 140°07'0 0.0
2016-Jun-26 18:33N 35°36' E 140°07'0 0.0
2016-Jun-26 17:33N 35°36' E 140°07'0 0.0
2016-Jun-26 16:34N 35°36' E 140°07'0 0.0
2016-Jun-26 15:34N 35°36' E 140°07'0 0.0
2016-Jun-26 14:34N 35°36' E 140°07'0 0.0
2016-Jun-26 13:34N 35°36' E 140°07'0 0.0
2016-Jun-26 12:33N 35°36' E 140°07'0 0.0
2016-Jun-26 11:34N 35°36' E 140°07'0 0.0
2016-Jun-26 10:33N 35°36' E 140°07'0 0.0
2016-Jun-26 09:34N 35°36' E 140°07'0 0.0
2016-Jun-26 08:34N 35°36' E 140°07'0 0.0
2016-Jun-26 07:34N 35°36' E 140°07'2 1.7
2016-Jun-26 06:34N 35°36' E 140°05'3 2.8
2016-Jun-26 05:33N 35°34' E 140°02'5 4.8
2016-Jun-26 04:34N 35°32' E 139°57'9 8.9
2016-Jun-26 03:34N 35°36' E 140°07'0 0.0
2016-Jun-26 02:34N 35°36' E 140°07'0 0.0
2016-Jun-26 01:33N 35°36' E 140°07'0 0.0
2016-Jun-26 00:33N 35°36' E 140°07'0 0.0
2016-Jun-25 23:33N 35°36' E 140°07'0 0.0
2016-Jun-25 22:33N 35°36' E 140°07'0 0.0
2016-Jun-25 21:34N 35°36' E 140°07'1 0.9
2016-Jun-25 20:33N 35°36' E 140°06'1 0.9
2016-Jun-25 19:34N 35°36' E 140°07'0 0.0
2016-Jun-25 18:33N 35°36' E 140°07'0 0.0
2016-Jun-25 17:33N 35°36' E 140°07'0 0.0
2016-Jun-25 16:34N 35°36' E 140°07'0 0.0
2016-Jun-25 15:33N 35°36' E 140°07'0 0.0
2016-Jun-25 14:33N 35°36' E 140°07'0 0.0
2016-Jun-25 13:33N 35°36' E 140°07'0 0.0
2016-Jun-25 12:33N 35°36' E 140°07'0 0.0
2016-Jun-25 11:33N 35°36' E 140°07'0 0.0
2016-Jun-25 10:33N 35°36' E 140°07'0 0.0
2016-Jun-25 09:33N 35°36' E 140°07'1 1.3
2016-Jun-25 08:33N 35°36' E 140°05'1 1.3
2016-Jun-25 07:34N 35°36' E 140°07'0 0.0
2016-Jun-25 06:34N 35°36' E 140°07'0 0.0
2016-Jun-25 05:33N 35°36' E 140°07'0 0.0
2016-Jun-25 04:33N 35°36' E 140°07'0 0.0
2016-Jun-25 03:34N 35°36' E 140°07'0 0.0
2016-Jun-25 02:33N 35°36' E 140°07'0 0.0
2016-Jun-25 01:33N 35°36' E 140°07'0 0.0
2016-Jun-25 00:33N 35°36' E 140°07'0 0.0
2016-Jun-24 23:33N 35°36' E 140°07'0 0.0
2016-Jun-24 22:33N 35°36' E 140°07'0 0.0
2016-Jun-24 21:33N 35°36' E 140°07'0 0.0
2016-Jun-24 20:33N 35°36' E 140°07'0 0.0
2016-Jun-24 19:34N 35°36' E 140°07'0 0.0
2016-Jun-24 18:33N 35°36' E 140°07'0 0.0
2016-Jun-24 17:33N 35°36' E 140°07'0 0.0
2016-Jun-24 16:33N 35°36' E 140°07'0 0.0
2016-Jun-24 15:33N 35°36' E 140°07'0 0.0
2016-Jun-24 14:33N 35°36' E 140°07'0 0.0
2016-Jun-24 13:32N 35°36' E 140°07'0 0.0
2016-Jun-24 12:34N 35°36' E 140°07'0 0.0
2016-Jun-24 11:34N 35°36' E 140°07'0 0.0
2016-Jun-24 10:32N 35°36' E 140°07'0 0.0
2016-Jun-24 09:33N 35°36' E 140°07'0 0.0
2016-Jun-24 08:33N 35°36' E 140°07'0 0.0
2016-Jun-24 07:33N 35°36' E 140°07'0 0.0
2016-Jun-24 04:33N 35°36' E 140°07'2 2.2
2016-Jun-24 03:31N 35°35' E 140°04'2 1.6
2016-Jun-24 02:06N 35°36' E 140°07'0 0.0
2016-Jun-24 01:33N 35°36' E 140°07'0 0.0
2016-Jun-24 00:33N 35°36' E 140°07'0 0.0
2016-Jun-23 23:33N 35°36' E 140°07'1 0.8
2016-Jun-23 22:33N 35°36' E 140°06'4 3.8
2016-Jun-23 21:33N 35°34' E 140°02'3 3.4
2016-Jun-23 20:33N 35°32' E 139°58'8 7.9
2016-Jun-23 19:33N 35°36' E 140°07'0 0.0
2016-Jun-23 18:32N 35°36' E 140°07'0 0.0
2016-Jun-23 17:33N 35°36' E 140°07'0 0.0
2016-Jun-23 16:33N 35°36' E 140°07'0 0.0
2016-Jun-23 15:33N 35°36' E 140°07'0 0.0
2016-Jun-23 14:33N 35°36' E 140°07'0 0.0
2016-Jun-23 13:33N 35°36' E 140°07'0 0.0
2016-Jun-23 12:33N 35°36' E 140°07'0 0.0
2016-Jun-23 11:33N 35°36' E 140°07'0 0.0
2016-Jun-23 10:33N 35°36' E 140°07'0 0.0
2016-Jun-23 09:33N 35°36' E 140°07'0 0.0
2016-Jun-23 08:33N 35°36' E 140°07'0 0.0
2016-Jun-23 07:33N 35°36' E 140°07'0 0.0
2016-Jun-23 05:33N 35°36' E 140°07'0 0.0
2016-Jun-23 04:33N 35°36' E 140°07'0 0.0
2016-Jun-23 03:33N 35°36' E 140°07'0 0.0
2016-Jun-23 02:33N 35°36' E 140°07'0 0.0
2016-Jun-23 01:33N 35°36' E 140°07'0 0.0
2016-Jun-23 00:33N 35°36' E 140°07'0 0.0
2016-Jun-22 23:33N 35°36' E 140°07'0 0.0
2016-Jun-22 22:33N 35°36' E 140°07'0 0.0
2016-Jun-22 21:33N 35°36' E 140°07'0 0.0
2016-Jun-22 20:33N 35°36' E 140°07'0 0.0
2016-Jun-22 19:33N 35°36' E 140°07'0 0.0
2016-Jun-22 18:33N 35°36' E 140°07'0 0.0
2016-Jun-22 17:33N 35°36' E 140°07'0 0.0
2016-Jun-22 16:33N 35°36' E 140°07'0 0.0
2016-Jun-22 15:33N 35°36' E 140°07'0 0.0
2016-Jun-22 14:33N 35°36' E 140°07'0 0.0
2016-Jun-22 13:33N 35°36' E 140°07'0 0.0
2016-Jun-22 12:34N 35°36' E 140°07'0 0.0
2016-Jun-22 11:33N 35°36' E 140°07'0 0.0
2016-Jun-22 10:33N 35°36' E 140°07'0 0.0
2016-Jun-22 09:33N 35°36' E 140°07'0 0.0
2016-Jun-22 08:33N 35°36' E 140°07'0 0.0
2016-Jun-22 07:34N 35°36' E 140°07'0 0.0
2016-Jun-22 06:34N 35°36' E 140°07'0 0.0
2016-Jun-22 05:33N 35°36' E 140°07'8 7.8
2016-Jun-22 04:33N 35°31' E 139°60'3 2.5
2016-Jun-22 03:33N 35°28' E 139°58'1010.2
2016-Jun-22 02:34N 35°36' E 140°07'0 0.0
2016-Jun-22 01:33N 35°36' E 140°07'0 0.0
2016-Jun-22 00:33N 35°36' E 140°07'3 2.8
2016-Jun-21 23:33N 35°35' E 140°03'2 2.3
2016-Jun-21 22:33N 35°35' E 140°06'1 0.9
2016-Jun-21 21:33N 35°36' E 140°07'0 0.0
2016-Jun-21 20:33N 35°36' E 140°07'0 0.0
2016-Jun-21 19:34N 35°36' E 140°07'0 0.0
2016-Jun-21 18:34N 35°36' E 140°07'0 0.0
2016-Jun-21 17:33N 35°36' E 140°07'0 0.0
2016-Jun-21 16:34N 35°36' E 140°07'0 0.0
2016-Jun-21 15:33N 35°36' E 140°07'0 0.0
2016-Jun-21 14:34N 35°36' E 140°07'0 0.0
2016-Jun-21 13:33N 35°36' E 140°07'0 0.0
2016-Jun-21 12:33N 35°36' E 140°07'0 0.0
2016-Jun-21 11:33N 35°36' E 140°07'0 0.0
2016-Jun-21 10:33N 35°36' E 140°07'0 0.0
2016-Jun-21 09:34N 35°36' E 140°07'0 0.0
2016-Jun-21 08:33N 35°36' E 140°07'0 0.0
2016-Jun-21 07:33N 35°36' E 140°07'1010.1
2016-Jun-21 06:34N 35°29' E 139°58'1 0.4
2016-Jun-21 04:33N 35°29' E 139°57'3 2.7
2016-Jun-21 03:33N 35°29' E 139°54'1212.1
2016-Jun-21 02:33N 35°36' E 140°07'0 0.3
2016-Jun-21 01:33N 35°36' E 140°07'3 2.7
2016-Jun-21 00:33N 35°34' E 140°04'5 5.1
2016-Jun-20 23:33N 35°30' E 140°01'8 7.6
2016-Jun-20 22:34N 35°36' E 140°07'0 0.0
2016-Jun-20 21:33N 35°36' E 140°07'0 0.0
2016-Jun-20 20:33N 35°36' E 140°07'0 0.0
2016-Jun-20 19:33N 35°36' E 140°07'0 0.0
2016-Jun-20 18:33N 35°36' E 140°07'0 0.0
2016-Jun-20 17:33N 35°36' E 140°07'0 0.0
2016-Jun-20 16:33N 35°36' E 140°07'0 0.0
2016-Jun-20 15:33N 35°36' E 140°07'0 0.0
2016-Jun-20 14:33N 35°36' E 140°07'0 0.0
2016-Jun-20 13:33N 35°36' E 140°07'0 0.0
2016-Jun-20 12:33N 35°36' E 140°07'0 0.0
2016-Jun-20 11:33N 35°36' E 140°07'0 0.0
2016-Jun-20 10:33N 35°36' E 140°07'0 0.0
2016-Jun-20 09:33N 35°36' E 140°07'1 1.4
2016-Jun-20 08:33N 35°36' E 140°05'1 1.4
2016-Jun-20 07:33N 35°36' E 140°07'0 0.1
2016-Jun-20 06:33N 35°36' E 140°07'0 0.0
2016-Jun-20 05:33N 35°36' E 140°07'0 0.0
2016-Jun-20 04:33N 35°36' E 140°07'0 0.0
2016-Jun-20 03:33N 35°36' E 140°07'0 0.0
2016-Jun-20 02:33N 35°36' E 140°07'  
Track history (hours):
 
Tides and Currents Weather Stations Pressure Air Temp Water Temp Dewpoint Dewpoint Depression Visibility Wind Speed Wind Dir Waves Ship Positions

Daio

Last reported at 2016-Jun-30 02:28 UTC. Time now 2016-Sep-30 18:39 UTC.
Position N 35°29' E 139°39'.
Warning: this ship's position is months out of date.

Length 36 m; draft 3.4 m.

Type: Tug. MMSI: 431003092.

Date/timePositionNaut miles runAvg speedWind from/ knotsBaromVisibWave heightAir tempDewpointWater temp
2016-Jun-30 02:28N 35°29' E 139°39'1 0.0
2016-Jun-29 06:34N 35°28' E 139°40'1 1.2
2016-Jun-29 05:33N 35°27' E 139°39'3 2.5
2016-Jun-29 04:33N 35°28' E 139°41'1312.8
2016-Jun-29 03:33N 35°32' E 139°56'9 9.2
2016-Jun-29 02:33N 35°36' E 140°07'0 0.0
2016-Jun-29 01:33N 35°36' E 140°07'0 0.0
2016-Jun-29 00:33N 35°36' E 140°07'0 0.1
2016-Jun-28 23:34N 35°36' E 140°07'0 0.1
2016-Jun-28 22:33N 35°36' E 140°07'0 0.0
2016-Jun-28 21:33N 35°36' E 140°07'0 0.0
2016-Jun-28 20:34N 35°36' E 140°07'0 0.0
2016-Jun-28 19:34N 35°36' E 140°07'0 0.0
2016-Jun-28 18:33N 35°36' E 140°07'0 0.0
2016-Jun-28 17:33N 35°36' E 140°07'0 0.0
2016-Jun-28 16:34N 35°36' E 140°07'0 0.0
2016-Jun-28 15:34N 35°36' E 140°07'0 0.0
2016-Jun-28 14:34N 35°36' E 140°07'0 0.0
2016-Jun-28 13:34N 35°36' E 140°07'0 0.0
2016-Jun-28 12:33N 35°36' E 140°07'0 0.0
2016-Jun-28 11:33N 35°36' E 140°07'0 0.0
2016-Jun-28 10:33N 35°36' E 140°07'0 0.0
2016-Jun-28 09:34N 35°36' E 140°07'0 0.0
2016-Jun-28 08:33N 35°36' E 140°07'0 0.0
2016-Jun-28 07:33N 35°36' E 140°07'0 0.0
2016-Jun-28 06:34N 35°36' E 140°07'1 0.7
2016-Jun-28 04:34N 35°36' E 140°05'1 1.3
2016-Jun-28 03:34N 35°36' E 140°07'0 0.4
2016-Jun-28 02:34N 35°35' E 140°07'1010.1
2016-Jun-28 01:33N 35°31' E 139°56'0 0.5
2016-Jun-28 00:33N 35°31' E 139°56'1010.0
2016-Jun-27 23:33N 35°36' E 140°07'0 0.1
2016-Jun-27 22:33N 35°36' E 140°07'0 0.0
2016-Jun-27 21:33N 35°36' E 140°07'0 0.0
2016-Jun-27 20:33N 35°36' E 140°07'0 0.0
2016-Jun-27 19:33N 35°36' E 140°07'0 0.0
2016-Jun-27 18:33N 35°36' E 140°07'0 0.0
2016-Jun-27 17:33N 35°36' E 140°07'0 0.0
2016-Jun-27 16:33N 35°36' E 140°07'0 0.0
2016-Jun-27 15:33N 35°36' E 140°07'0 0.0
2016-Jun-27 14:33N 35°36' E 140°07'0 0.0
2016-Jun-27 13:33N 35°36' E 140°07'0 0.0
2016-Jun-27 12:33N 35°36' E 140°07'0 0.0
2016-Jun-27 11:33N 35°36' E 140°07'0 0.0
2016-Jun-27 10:33N 35°36' E 140°07'2 2.5
2016-Jun-27 09:33N 35°35' E 140°04'2 2.5
2016-Jun-27 08:33N 35°36' E 140°07'0 0.0
2016-Jun-27 07:33N 35°36' E 140°07'0 0.0
2016-Jun-27 06:33N 35°36' E 140°07'0 0.0
2016-Jun-27 05:33N 35°36' E 140°07'8 7.5
2016-Jun-27 04:34N 35°34' E 139°58'6 5.8
2016-Jun-27 03:33N 35°36' E 140°05'2 1.8
2016-Jun-27 02:33N 35°36' E 140°07'0 0.0
2016-Jun-27 01:33N 35°36' E 140°07'0 0.0
2016-Jun-27 00:33N 35°36' E 140°07'0 0.0
2016-Jun-26 23:33N 35°36' E 140°07'1 0.7
2016-Jun-26 22:33N 35°35' E 140°06'2 2.0
2016-Jun-26 21:33N 35°35' E 140°04'0 0.0
2016-Jun-26 20:33N 35°35' E 140°04'3 2.5
2016-Jun-26 19:34N 35°36' E 140°07'0 0.0
2016-Jun-26 18:33N 35°36' E 140°07'0 0.0
2016-Jun-26 17:33N 35°36' E 140°07'0 0.0
2016-Jun-26 16:34N 35°36' E 140°07'0 0.0
2016-Jun-26 15:34N 35°36' E 140°07'0 0.0
2016-Jun-26 14:34N 35°36' E 140°07'0 0.0
2016-Jun-26 13:34N 35°36' E 140°07'0 0.0
2016-Jun-26 12:33N 35°36' E 140°07'0 0.0
2016-Jun-26 11:34N 35°36' E 140°07'0 0.0
2016-Jun-26 10:33N 35°36' E 140°07'0 0.0
2016-Jun-26 09:34N 35°36' E 140°07'0 0.0
2016-Jun-26 08:34N 35°36' E 140°07'0 0.0
2016-Jun-26 07:34N 35°36' E 140°07'2 1.7
2016-Jun-26 06:34N 35°36' E 140°05'3 2.8
2016-Jun-26 05:33N 35°34' E 140°02'5 4.8
2016-Jun-26 04:34N 35°32' E 139°57'9 8.9
2016-Jun-26 03:34N 35°36' E 140°07'0 0.0
2016-Jun-26 02:34N 35°36' E 140°07'0 0.0
2016-Jun-26 01:33N 35°36' E 140°07'0 0.0
2016-Jun-26 00:33N 35°36' E 140°07'0 0.0
2016-Jun-25 23:33N 35°36' E 140°07'0 0.0
2016-Jun-25 22:33N 35°36' E 140°07'0 0.0
2016-Jun-25 21:34N 35°36' E 140°07'1 0.9
2016-Jun-25 20:33N 35°36' E 140°06'1 0.9
2016-Jun-25 19:34N 35°36' E 140°07'0 0.0
2016-Jun-25 18:33N 35°36' E 140°07'0 0.0
2016-Jun-25 17:33N 35°36' E 140°07'0 0.0
2016-Jun-25 16:34N 35°36' E 140°07'0 0.0
2016-Jun-25 15:33N 35°36' E 140°07'0 0.0
2016-Jun-25 14:33N 35°36' E 140°07'0 0.0
2016-Jun-25 13:33N 35°36' E 140°07'0 0.0
2016-Jun-25 12:33N 35°36' E 140°07'0 0.0
2016-Jun-25 11:33N 35°36' E 140°07'0 0.0
2016-Jun-25 10:33N 35°36' E 140°07'0 0.0
2016-Jun-25 09:33N 35°36' E 140°07'1 1.3
2016-Jun-25 08:33N 35°36' E 140°05'1 1.3
2016-Jun-25 07:34N 35°36' E 140°07'0 0.0
2016-Jun-25 06:34N 35°36' E 140°07'0 0.0
2016-Jun-25 05:33N 35°36' E 140°07'0 0.0
2016-Jun-25 04:33N 35°36' E 140°07'0 0.0
2016-Jun-25 03:34N 35°36' E 140°07'0 0.0
2016-Jun-25 02:33N 35°36' E 140°07'0 0.0
2016-Jun-25 01:33N 35°36' E 140°07'0 0.0
2016-Jun-25 00:33N 35°36' E 140°07'0 0.0
2016-Jun-24 23:33N 35°36' E 140°07'0 0.0
2016-Jun-24 22:33N 35°36' E 140°07'0 0.0
2016-Jun-24 21:33N 35°36' E 140°07'0 0.0
2016-Jun-24 20:33N 35°36' E 140°07'0 0.0
2016-Jun-24 19:34N 35°36' E 140°07'0 0.0
2016-Jun-24 18:33N 35°36' E 140°07'0 0.0
2016-Jun-24 17:33N 35°36' E 140°07'0 0.0
2016-Jun-24 16:33N 35°36' E 140°07'0 0.0
2016-Jun-24 15:33N 35°36' E 140°07'0 0.0
2016-Jun-24 14:33N 35°36' E 140°07'0 0.0
2016-Jun-24 13:32N 35°36' E 140°07'0 0.0
2016-Jun-24 12:34N 35°36' E 140°07'0 0.0
2016-Jun-24 11:34N 35°36' E 140°07'0 0.0
2016-Jun-24 10:32N 35°36' E 140°07'0 0.0
2016-Jun-24 09:33N 35°36' E 140°07'0 0.0
2016-Jun-24 08:33N 35°36' E 140°07'0 0.0
2016-Jun-24 07:33N 35°36' E 140°07'0 0.0
2016-Jun-24 04:33N 35°36' E 140°07'2 2.2
2016-Jun-24 03:31N 35°35' E 140°04'2 1.6
2016-Jun-24 02:06N 35°36' E 140°07'0 0.0
2016-Jun-24 01:33N 35°36' E 140°07'0 0.0
2016-Jun-24 00:33N 35°36' E 140°07'0 0.0
2016-Jun-23 23:33N 35°36' E 140°07'1 0.8
2016-Jun-23 22:33N 35°36' E 140°06'4 3.8
2016-Jun-23 21:33N 35°34' E 140°02'3 3.4
2016-Jun-23 20:33N 35°32' E 139°58'8 7.9
2016-Jun-23 19:33N 35°36' E 140°07'0 0.0
2016-Jun-23 18:32N 35°36' E 140°07'0 0.0
2016-Jun-23 17:33N 35°36' E 140°07'0 0.0
2016-Jun-23 16:33N 35°36' E 140°07'0 0.0
2016-Jun-23 15:33N 35°36' E 140°07'0 0.0
2016-Jun-23 14:33N 35°36' E 140°07'0 0.0
2016-Jun-23 13:33N 35°36' E 140°07'0 0.0
2016-Jun-23 12:33N 35°36' E 140°07'0 0.0
2016-Jun-23 11:33N 35°36' E 140°07'0 0.0
2016-Jun-23 10:33N 35°36' E 140°07'0 0.0
2016-Jun-23 09:33N 35°36' E 140°07'0 0.0
2016-Jun-23 08:33N 35°36' E 140°07'0 0.0
2016-Jun-23 07:33N 35°36' E 140°07'0 0.0
2016-Jun-23 05:33N 35°36' E 140°07'0 0.0
2016-Jun-23 04:33N 35°36' E 140°07'0 0.0
2016-Jun-23 03:33N 35°36' E 140°07'0 0.0
2016-Jun-23 02:33N 35°36' E 140°07'0 0.0
2016-Jun-23 01:33N 35°36' E 140°07'0 0.0
2016-Jun-23 00:33N 35°36' E 140°07'0 0.0
2016-Jun-22 23:33N 35°36' E 140°07'0 0.0
2016-Jun-22 22:33N 35°36' E 140°07'0 0.0
2016-Jun-22 21:33N 35°36' E 140°07'0 0.0
2016-Jun-22 20:33N 35°36' E 140°07'0 0.0
2016-Jun-22 19:33N 35°36' E 140°07'0 0.0
2016-Jun-22 18:33N 35°36' E 140°07'0 0.0
2016-Jun-22 17:33N 35°36' E 140°07'0 0.0
2016-Jun-22 16:33N 35°36' E 140°07'0 0.0
2016-Jun-22 15:33N 35°36' E 140°07'0 0.0
2016-Jun-22 14:33N 35°36' E 140°07'0 0.0
2016-Jun-22 13:33N 35°36' E 140°07'0 0.0
2016-Jun-22 12:34N 35°36' E 140°07'0 0.0
2016-Jun-22 11:33N 35°36' E 140°07'0 0.0
2016-Jun-22 10:33N 35°36' E 140°07'0 0.0
2016-Jun-22 09:33N 35°36' E 140°07'0 0.0
2016-Jun-22 08:33N 35°36' E 140°07'0 0.0
2016-Jun-22 07:34N 35°36' E 140°07'0 0.0
2016-Jun-22 06:34N 35°36' E 140°07'0 0.0
2016-Jun-22 05:33N 35°36' E 140°07'8 7.8
2016-Jun-22 04:33N 35°31' E 139°60'3 2.5
2016-Jun-22 03:33N 35°28' E 139°58'1010.2
2016-Jun-22 02:34N 35°36' E 140°07'0 0.0
2016-Jun-22 01:33N 35°36' E 140°07'0 0.0
2016-Jun-22 00:33N 35°36' E 140°07'3 2.8
2016-Jun-21 23:33N 35°35' E 140°03'2 2.3
2016-Jun-21 22:33N 35°35' E 140°06'1 0.9
2016-Jun-21 21:33N 35°36' E 140°07'0 0.0
2016-Jun-21 20:33N 35°36' E 140°07'0 0.0
2016-Jun-21 19:34N 35°36' E 140°07'0 0.0
2016-Jun-21 18:34N 35°36' E 140°07'0 0.0
2016-Jun-21 17:33N 35°36' E 140°07'0 0.0
2016-Jun-21 16:34N 35°36' E 140°07'0 0.0
2016-Jun-21 15:33N 35°36' E 140°07'0 0.0
2016-Jun-21 14:34N 35°36' E 140°07'0 0.0
2016-Jun-21 13:33N 35°36' E 140°07'0 0.0
2016-Jun-21 12:33N 35°36' E 140°07'0 0.0
2016-Jun-21 11:33N 35°36' E 140°07'0 0.0
2016-Jun-21 10:33N 35°36' E 140°07'0 0.0
2016-Jun-21 09:34N 35°36' E 140°07'0 0.0
2016-Jun-21 08:33N 35°36' E 140°07'0 0.0
2016-Jun-21 07:33N 35°36' E 140°07'1010.1
2016-Jun-21 06:34N 35°29' E 139°58'1 0.4
2016-Jun-21 04:33N 35°29' E 139°57'3 2.7
2016-Jun-21 03:33N 35°29' E 139°54'1212.1
2016-Jun-21 02:33N 35°36' E 140°07'0 0.3
2016-Jun-21 01:33N 35°36' E 140°07'3 2.7
2016-Jun-21 00:33N 35°34' E 140°04'5 5.1
2016-Jun-20 23:33N 35°30' E 140°01'8 7.6
2016-Jun-20 22:34N 35°36' E 140°07'0 0.0
2016-Jun-20 21:33N 35°36' E 140°07'0 0.0
2016-Jun-20 20:33N 35°36' E 140°07'0 0.0
2016-Jun-20 19:33N 35°36' E 140°07'0 0.0
2016-Jun-20 18:33N 35°36' E 140°07'0 0.0
2016-Jun-20 17:33N 35°36' E 140°07'0 0.0
2016-Jun-20 16:33N 35°36' E 140°07'0 0.0
2016-Jun-20 15:33N 35°36' E 140°07'0 0.0
2016-Jun-20 14:33N 35°36' E 140°07'0 0.0
2016-Jun-20 13:33N 35°36' E 140°07'0 0.0
2016-Jun-20 12:33N 35°36' E 140°07'0 0.0
2016-Jun-20 11:33N 35°36' E 140°07'0 0.0
2016-Jun-20 10:33N 35°36' E 140°07'0 0.0
2016-Jun-20 09:33N 35°36' E 140°07'1 1.4
2016-Jun-20 08:33N 35°36' E 140°05'1 1.4
2016-Jun-20 07:33N 35°36' E 140°07'0 0.1
2016-Jun-20 06:33N 35°36' E 140°07'0 0.0
2016-Jun-20 05:33N 35°36' E 140°07'0 0.0
2016-Jun-20 04:33N 35°36' E 140°07'0 0.0
2016-Jun-20 03:33N 35°36' E 140°07'0 0.0
2016-Jun-20 02:33N 35°36' E 140°07'  

Dump ship's entire track history